Time,TemperatureF,DewpointF,PressureIn,WindDirection,WindDirectionDegrees,WindSpeedMPH,WindSpeedGustMPH,Humidity,HourlyPrecipIn,Conditions,Clouds,dailyrainin,SoftwareType,DateUTC
2013-08-07 00:02:00,51.1,42.1,31.11,NE,45,2.0,-999.0,71,-99.99,,,0.00,meteohub,2013-08-07 06:02:00,
2013-08-07 00:07:00,51.1,42.1,31.11,NE,45,2.0,-999.0,71,-99.99,,,0.00,meteohub,2013-08-07 06:07:00,
2013-08-07 00:12:00,50.7,42.1,31.11,SE,135,0.0,-999.0,72,-99.99,,,0.00,meteohub,2013-08-07 06:12:00,
2013-08-07 00:17:00,50.4,41.7,31.11,NE,45,2.0,-999.0,72,-99.99,,,0.00,meteohub,2013-08-07 06:17:00,
2013-08-07 00:22:00,50.2,41.9,31.11,NE,45,2.0,-999.0,73,-99.99,,,0.00,meteohub,2013-08-07 06:22:00,
2013-08-07 00:27:00,50.2,42.3,31.11,East,90,1.0,-999.0,74,-99.99,,,0.00,meteohub,2013-08-07 06:27:00,
2013-08-07 00:32:00,50.0,42.1,31.11,East,90,2.0,-999.0,74,-99.99,,,0.00,meteohub,2013-08-07 06:32:00,
2013-08-07 00:37:00,50.0,41.7,31.11,NE,45,1.0,4.0,73,0.00,,,0.00,meteohub,2013-08-07 06:37:00,
2013-08-07 00:42:00,49.8,42.3,31.11,NE,45,2.0,4.0,75,0.00,,,0.00,meteohub,2013-08-07 06:42:00,
2013-08-07 00:47:00,49.6,42.1,31.11,NE,45,0.0,4.0,75,0.00,,,0.00,meteohub,2013-08-07 06:47:00,
2013-08-07 00:52:00,49.6,42.4,31.11,East,90,0.0,3.0,76,0.00,,,0.00,meteohub,2013-08-07 06:52:00,
2013-08-07 00:57:00,49.5,42.3,31.10,East,90,2.0,2.0,76,0.00,,,0.00,meteohub,2013-08-07 06:57:00,
2013-08-07 01:02:00,49.3,42.1,31.10,East,90,0.0,2.0,76,0.00,,,0.00,meteohub,2013-08-07 07:02:00,
2013-08-07 01:07:00,48.9,42.1,31.11,East,90,2.0,2.0,77,0.00,,,0.00,meteohub,2013-08-07 07:07:00,
2013-08-07 01:12:00,48.9,42.1,31.10,East,90,2.0,2.0,77,0.00,,,0.00,meteohub,2013-08-07 07:12:00,
2013-08-07 01:17:00,48.7,42.3,31.10,East,90,2.0,2.0,78,0.00,,,0.00,meteohub,2013-08-07 07:17:00,
2013-08-07 01:22:00,48.9,42.4,31.10,South,180,2.0,2.0,78,0.00,,,0.00,meteohub,2013-08-07 07:22:00,
2013-08-07 01:27:00,48.9,42.4,31.10,SE,135,2.0,2.0,78,0.00,,,0.00,meteohub,2013-08-07 07:27:00,
2013-08-07 01:32:00,48.9,42.4,31.10,SE,135,2.0,4.0,78,0.00,,,0.00,meteohub,2013-08-07 07:32:00,
2013-08-07 01:37:00,49.1,42.6,31.10,SE,135,3.0,4.0,78,0.00,,,0.00,meteohub,2013-08-07 07:37:00,
2013-08-07 01:42:00,49.5,42.8,31.10,SE,135,0.0,3.0,78,0.00,,,0.00,meteohub,2013-08-07 07:42:00,
2013-08-07 01:47:00,49.6,43.0,31.10,South,180,2.0,3.0,78,0.00,,,0.00,meteohub,2013-08-07 07:47:00,
2013-08-07 01:52:00,49.5,42.6,31.10,South,180,1.0,3.0,77,0.00,,,0.00,meteohub,2013-08-07 07:52:00,
2013-08-07 01:57:00,49.3,42.4,31.10,SE,135,2.0,2.0,77,0.00,,,0.00,meteohub,2013-08-07 07:57:00,
2013-08-07 02:02:00,49.1,42.6,31.09,South,180,2.0,3.0,78,0.00,,,0.00,meteohub,2013-08-07 08:02:00,
2013-08-07 02:07:00,49.1,42.6,31.09,South,180,2.0,3.0,78,0.00,,,0.00,meteohub,2013-08-07 08:07:00,
2013-08-07 02:12:00,48.6,42.1,31.09,NW,315,1.0,3.0,78,0.00,,,0.00,meteohub,2013-08-07 08:12:00,
2013-08-07 02:17:00,48.2,41.7,31.09,NW,315,0.0,2.0,78,0.00,,,0.00,meteohub,2013-08-07 08:17:00,
2013-08-07 02:22:00,47.7,41.5,31.09,NE,45,3.0,3.0,79,0.00,,,0.00,meteohub,2013-08-07 08:22:00,
2013-08-07 02:27:00,47.5,41.4,31.09,SE,135,4.0,4.0,79,0.00,,,0.00,meteohub,2013-08-07 08:27:00,
2013-08-07 02:32:00,47.8,41.7,31.09,SE,135,4.0,4.0,79,0.00,,,0.00,meteohub,2013-08-07 08:32:00,
2013-08-07 02:37:00,48.2,41.7,31.09,NE,45,2.0,5.0,78,0.00,,,0.00,meteohub,2013-08-07 08:37:00,
2013-08-07 02:42:00,48.2,41.7,31.09,South,180,2.0,5.0,78,0.00,,,0.00,meteohub,2013-08-07 08:42:00,
2013-08-07 02:47:00,48.0,41.5,31.09,East,90,2.0,5.0,78,0.00,,,0.00,meteohub,2013-08-07 08:47:00,
2013-08-07 02:52:00,47.5,40.6,31.08,East,90,0.0,3.0,77,0.00,,,0.00,meteohub,2013-08-07 08:52:00,
2013-08-07 02:57:00,47.1,40.6,31.08,NE,45,2.0,3.0,78,0.00,,,0.00,meteohub,2013-08-07 08:57:00,
2013-08-07 03:02:00,46.9,40.5,31.08,East,90,3.0,3.0,78,0.00,,,0.00,meteohub,2013-08-07 09:02:00,
2013-08-07 03:07:00,46.4,39.6,31.08,East,90,4.0,4.0,77,0.00,,,0.00,meteohub,2013-08-07 09:07:00,
2013-08-07 03:12:00,46.0,39.6,31.08,East,90,2.0,4.0,78,0.00,,,0.00,meteohub,2013-08-07 09:12:00,
2013-08-07 03:17:00,46.0,39.9,31.09,East,90,2.0,4.0,79,0.00,,,0.00,meteohub,2013-08-07 09:17:00,
2013-08-07 03:22:00,46.0,40.3,31.09,East,90,2.0,4.0,80,0.00,,,0.00,meteohub,2013-08-07 09:22:00,
2013-08-07 03:27:00,46.0,40.3,31.08,South,180,3.0,3.0,80,0.00,,,0.00,meteohub,2013-08-07 09:27:00,
2013-08-07 03:32:00,46.6,41.0,31.08,East,90,4.0,4.0,81,0.00,,,0.00,meteohub,2013-08-07 09:32:00,
2013-08-07 03:37:00,47.3,41.4,31.09,SW,225,2.0,4.0,80,0.00,,,0.00,meteohub,2013-08-07 09:37:00,
2013-08-07 03:42:00,47.7,41.7,31.08,SE,135,2.0,4.0,80,0.00,,,0.00,meteohub,2013-08-07 09:42:00,
2013-08-07 03:47:00,47.8,41.7,31.09,North,0,1.0,4.0,79,0.00,,,0.00,meteohub,2013-08-07 09:47:00,
2013-08-07 03:52:00,47.7,41.5,31.09,NE,45,2.0,4.0,79,0.00,,,0.00,meteohub,2013-08-07 09:52:00,
2013-08-07 03:57:00,47.3,41.2,31.09,East,90,2.0,4.0,79,0.00,,,0.00,meteohub,2013-08-07 09:57:00,
2013-08-07 04:02:00,46.9,41.2,31.09,East,90,1.0,2.0,80,0.00,,,0.00,meteohub,2013-08-07 10:02:00,
2013-08-07 04:07:00,46.9,41.2,31.09,East,90,1.0,2.0,80,0.00,,,0.00,meteohub,2013-08-07 10:07:00,
2013-08-07 04:12:00,46.4,40.8,31.09,East,90,2.0,2.0,81,0.00,,,0.00,meteohub,2013-08-07 10:12:00,
2013-08-07 04:17:00,46.2,40.5,31.09,NE,45,2.0,2.0,80,0.00,,,0.00,meteohub,2013-08-07 10:17:00,
2013-08-07 04:22:00,46.0,40.5,31.09,SE,135,2.0,2.0,81,0.00,,,0.00,meteohub,2013-08-07 10:22:00,
2013-08-07 04:27:00,46.0,40.5,31.09,South,180,0.0,2.0,81,0.00,,,0.00,meteohub,2013-08-07 10:27:00,
2013-08-07 04:32:00,46.0,40.5,31.09,South,180,0.0,3.0,81,0.00,,,0.00,meteohub,2013-08-07 10:32:00,
2013-08-07 04:37:00,45.9,40.6,31.09,East,90,2.0,3.0,82,0.00,,,0.00,meteohub,2013-08-07 10:37:00,
2013-08-07 04:42:00,45.7,40.5,31.09,East,90,0.0,2.0,82,0.00,,,0.00,meteohub,2013-08-07 10:42:00,
2013-08-07 04:47:00,45.5,40.3,31.09,East,90,2.0,2.0,82,0.00,,,0.00,meteohub,2013-08-07 10:47:00,
2013-08-07 04:52:00,45.1,39.9,31.09,East,90,1.0,2.0,82,0.00,,,0.00,meteohub,2013-08-07 10:52:00,
2013-08-07 04:57:00,45.0,39.7,31.09,East,90,2.0,3.0,82,0.00,,,0.00,meteohub,2013-08-07 10:57:00,
2013-08-07 05:02:00,45.0,39.7,31.09,SE,135,3.0,4.0,82,0.00,,,0.00,meteohub,2013-08-07 11:02:00,
2013-08-07 05:07:00,45.1,39.9,31.09,East,90,2.0,4.0,82,0.00,,,0.00,meteohub,2013-08-07 11:07:00,
2013-08-07 05:12:00,45.3,40.1,31.09,SE,135,2.0,4.0,82,0.00,,,0.00,meteohub,2013-08-07 11:12:00,
2013-08-07 05:17:00,45.5,40.3,31.09,South,180,1.0,4.0,82,0.00,,,0.00,meteohub,2013-08-07 11:17:00,
2013-08-07 05:22:00,45.5,40.3,31.08,NW,315,0.0,4.0,82,0.00,,,0.00,meteohub,2013-08-07 11:22:00,
2013-08-07 05:27:00,45.5,40.3,31.08,SE,135,0.0,3.0,82,0.00,,,0.00,meteohub,2013-08-07 11:27:00,
2013-08-07 05:32:00,45.3,40.1,31.08,South,180,0.0,2.0,82,0.00,,,0.00,meteohub,2013-08-07 11:32:00,
2013-08-07 05:37:00,45.1,39.9,31.08,NE,45,2.0,2.0,82,0.00,,,0.00,meteohub,2013-08-07 11:37:00,
2013-08-07 05:42:00,45.0,40.1,31.08,East,90,2.0,2.0,83,0.00,,,0.00,meteohub,2013-08-07 11:42:00,
2013-08-07 05:47:00,45.1,40.3,31.09,East,90,2.0,2.0,83,0.00,,,0.00,meteohub,2013-08-07 11:47:00,
2013-08-07 05:52:00,45.3,40.8,31.09,SE,135,3.0,3.0,84,0.00,,,0.00,meteohub,2013-08-07 11:52:00,
2013-08-07 05:57:00,45.7,41.2,31.09,SE,135,4.0,4.0,84,0.00,,,0.00,meteohub,2013-08-07 11:57:00,
2013-08-07 06:02:00,46.2,41.4,31.09,South,180,4.0,4.0,83,0.00,,,0.00,meteohub,2013-08-07 12:02:00,
2013-08-07 06:07:00,46.2,41.4,31.09,South,180,4.0,6.0,83,0.00,,,0.00,meteohub,2013-08-07 12:07:00,
2013-08-07 06:12:00,47.5,42.3,31.09,South,180,2.0,6.0,82,0.00,,,0.00,meteohub,2013-08-07 12:12:00,
2013-08-07 06:17:00,47.5,42.3,31.09,SE,135,2.0,4.0,82,0.00,,,0.00,meteohub,2013-08-07 12:17:00,
2013-08-07 06:22:00,47.5,42.3,31.10,SE,135,4.0,5.0,82,0.00,,,0.00,meteohub,2013-08-07 12:22:00,
2013-08-07 06:27:00,47.8,42.6,31.10,SE,135,4.0,5.0,82,0.00,,,0.00,meteohub,2013-08-07 12:27:00,
2013-08-07 06:32:00,48.2,42.6,31.09,South,180,4.0,5.0,81,0.00,,,0.00,meteohub,2013-08-07 12:32:00,
2013-08-07 06:37:00,48.4,42.4,31.10,South,180,4.0,5.0,80,0.00,,,0.00,meteohub,2013-08-07 12:37:00,
2013-08-07 06:42:00,48.6,42.3,31.10,SE,135,7.0,8.0,79,0.00,,,0.00,meteohub,2013-08-07 12:42:00,
2013-08-07 06:47:00,48.9,42.4,31.09,SE,135,7.0,8.0,78,0.00,,,0.00,meteohub,2013-08-07 12:47:00,
2013-08-07 06:52:00,48.9,42.1,31.09,South,180,5.0,8.0,77,0.00,,,0.00,meteohub,2013-08-07 12:52:00,
2013-08-07 06:57:00,49.1,41.9,31.09,SE,135,5.0,7.0,76,0.00,,,0.00,meteohub,2013-08-07 12:57:00,
2013-08-07 07:02:00,49.3,41.7,31.09,SE,135,6.0,8.0,75,0.00,,,0.00,meteohub,2013-08-07 13:02:00,
2013-08-07 07:07:00,49.5,41.9,31.10,South,180,6.0,8.0,75,0.00,,,0.00,meteohub,2013-08-07 13:07:00,
2013-08-07 07:12:00,49.6,42.1,31.09,SSW,203,8.0,8.0,75,0.00,,,0.00,meteohub,2013-08-07 13:12:00,
2013-08-07 07:17:00,49.8,41.9,31.09,SE,135,5.0,8.0,74,0.00,,,0.00,meteohub,2013-08-07 13:17:00,
2013-08-07 07:22:00,49.8,41.9,31.09,South,180,4.0,8.0,74,0.00,,,0.00,meteohub,2013-08-07 13:22:00,
2013-08-07 07:27:00,50.0,41.4,31.09,South,180,7.0,8.0,72,0.00,,,0.00,meteohub,2013-08-07 13:27:00,
2013-08-07 07:32:00,49.8,41.5,31.09,South,180,7.0,8.0,73,0.00,,,0.00,meteohub,2013-08-07 13:32:00,
2013-08-07 07:37:00,50.0,41.4,31.09,SE,135,5.0,8.0,72,0.00,,,0.00,meteohub,2013-08-07 13:37:00,
2013-08-07 07:42:00,50.2,41.5,31.09,South,180,4.0,8.0,72,0.00,,,0.00,meteohub,2013-08-07 13:42:00,
2013-08-07 07:47:00,50.4,42.1,31.09,South,180,5.0,8.0,73,0.00,,,0.00,meteohub,2013-08-07 13:47:00,
2013-08-07 07:52:00,50.5,42.3,31.09,South,180,4.0,7.0,73,0.00,,,0.00,meteohub,2013-08-07 13:52:00,
2013-08-07 07:57:00,50.5,42.3,31.10,South,180,6.0,6.0,73,0.00,,,0.00,meteohub,2013-08-07 13:57:00,
2013-08-07 08:02:00,50.5,42.3,31.09,South,180,6.0,8.0,73,0.00,,,0.00,meteohub,2013-08-07 14:02:00,
2013-08-07 08:07:00,50.5,42.3,31.10,South,180,6.0,8.0,73,0.00,,,0.00,meteohub,2013-08-07 14:07:00,
2013-08-07 08:12:00,50.9,43.0,31.10,SW,225,3.0,8.0,74,0.00,,,0.00,meteohub,2013-08-07 14:12:00,
2013-08-07 08:17:00,51.1,43.2,31.10,South,180,2.0,6.0,74,0.00,,,0.00,meteohub,2013-08-07 14:17:00,
2013-08-07 08:22:00,51.3,43.5,31.10,South,180,4.0,6.0,75,0.00,,,0.00,meteohub,2013-08-07 14:22:00,
2013-08-07 08:27:00,51.6,43.9,31.10,South,180,4.0,4.0,75,0.00,,,0.00,meteohub,2013-08-07 14:27:00,
2013-08-07 08:32:00,51.8,43.7,31.10,South,180,3.0,4.0,74,0.00,,,0.00,meteohub,2013-08-07 14:32:00,
2013-08-07 08:37:00,51.8,43.7,31.10,SW,225,3.0,4.0,74,0.00,,,0.00,meteohub,2013-08-07 14:37:00,
2013-08-07 08:42:00,52.0,44.2,31.11,South,180,2.0,6.0,75,0.00,,,0.00,meteohub,2013-08-07 14:42:00,
2013-08-07 08:47:00,52.0,44.2,31.11,South,180,4.0,6.0,75,0.00,,,0.00,meteohub,2013-08-07 14:47:00,
2013-08-07 08:52:00,52.2,44.4,31.10,South,180,3.0,4.0,75,0.00,,,0.00,meteohub,2013-08-07 14:52:00,
2013-08-07 08:57:00,52.3,44.6,31.10,South,180,4.0,4.0,75,0.00,,,0.00,meteohub,2013-08-07 14:57:00,
2013-08-07 09:02:00,52.7,45.0,31.10,South,180,5.0,5.0,75,0.00,,,0.00,meteohub,2013-08-07 15:02:00,
2013-08-07 09:07:00,53.1,45.3,31.10,SE,135,5.0,5.0,75,0.00,,,0.00,meteohub,2013-08-07 15:07:00,
2013-08-07 09:12:00,53.4,45.7,31.10,South,180,6.0,6.0,75,0.00,,,0.00,meteohub,2013-08-07 15:12:00,
2013-08-07 09:17:00,53.6,45.1,31.10,SE,135,8.0,10.0,73,0.00,,,0.00,meteohub,2013-08-07 15:17:00,
2013-08-07 09:22:00,53.4,45.3,31.10,SE,135,7.0,10.0,74,0.00,,,0.00,meteohub,2013-08-07 15:22:00,
2013-08-07 09:27:00,53.2,45.1,31.10,South,180,5.0,10.0,74,0.00,,,0.00,meteohub,2013-08-07 15:27:00,
2013-08-07 09:32:00,53.2,45.1,31.10,South,180,6.0,8.0,74,0.00,,,0.00,meteohub,2013-08-07 15:32:00,
2013-08-07 09:37:00,53.2,45.5,31.10,South,180,6.0,9.0,75,0.00,,,0.00,meteohub,2013-08-07 15:37:00,
2013-08-07 09:42:00,53.2,45.9,31.11,South,180,8.0,9.0,76,0.00,,,0.00,meteohub,2013-08-07 15:42:00,
2013-08-07 09:47:00,53.2,45.5,31.11,South,180,7.0,10.0,75,0.00,,,0.00,meteohub,2013-08-07 15:47:00,
2013-08-07 09:52:00,53.4,45.7,31.11,SW,225,9.0,10.0,75,0.00,,,0.00,meteohub,2013-08-07 15:52:00,
2013-08-07 09:57:00,53.4,45.3,31.11,ESE,113,8.0,10.0,74,0.00,,,0.00,meteohub,2013-08-07 15:57:00,
2013-08-07 10:02:00,53.4,45.3,31.11,SE,135,8.0,9.0,74,0.00,,,0.00,meteohub,2013-08-07 16:02:00,
2013-08-07 10:07:00,53.4,45.3,31.12,SE,135,8.0,9.0,74,0.00,,,0.00,meteohub,2013-08-07 16:07:00,
2013-08-07 10:12:00,53.4,45.3,31.12,SE,135,4.0,8.0,74,0.00,,,0.00,meteohub,2013-08-07 16:12:00,
2013-08-07 10:17:00,53.2,45.1,31.12,South,180,4.0,8.0,74,0.00,,,0.00,meteohub,2013-08-07 16:17:00,
2013-08-07 10:22:00,53.2,45.1,31.12,SE,135,8.0,8.0,74,0.00,,,0.00,meteohub,2013-08-07 16:22:00,
2013-08-07 10:27:00,53.2,44.8,31.12,SE,135,9.0,9.0,73,0.00,,,0.00,meteohub,2013-08-07 16:27:00,
2013-08-07 10:32:00,53.2,44.4,31.12,SE,135,7.0,9.0,72,0.00,,,0.00,meteohub,2013-08-07 16:32:00,
2013-08-07 10:37:00,53.2,44.1,31.12,South,180,8.0,9.0,71,0.00,,,0.00,meteohub,2013-08-07 16:37:00,
2013-08-07 10:42:00,53.2,44.1,31.12,SE,135,6.0,12.0,71,0.00,,,0.00,meteohub,2013-08-07 16:42:00,
2013-08-07 10:47:00,53.2,43.7,31.12,South,180,9.0,12.0,70,0.00,,,0.00,meteohub,2013-08-07 16:47:00,
2013-08-07 10:52:00,53.2,43.3,31.12,South,180,8.0,12.0,69,0.00,,,0.00,meteohub,2013-08-07 16:52:00,
2013-08-07 10:57:00,53.2,43.3,31.12,South,180,7.0,11.0,69,0.00,,,0.00,meteohub,2013-08-07 16:57:00,
2013-08-07 11:02:00,53.2,43.3,31.12,SW,225,7.0,11.0,69,0.00,,,0.00,meteohub,2013-08-07 17:02:00,
2013-08-07 11:07:00,53.4,43.5,31.12,South,180,4.0,11.0,69,0.00,,,0.00,meteohub,2013-08-07 17:07:00,
2013-08-07 11:12:00,53.6,43.3,31.12,SW,225,8.0,10.0,68,0.00,,,0.00,meteohub,2013-08-07 17:12:00,
2013-08-07 11:17:00,54.0,44.1,31.12,South,180,8.0,10.0,69,0.00,,,0.00,meteohub,2013-08-07 17:17:00,
2013-08-07 11:22:00,54.0,44.1,31.12,SE,135,6.0,11.0,69,0.00,,,0.00,meteohub,2013-08-07 17:22:00,
2013-08-07 11:27:00,54.1,43.9,31.12,South,180,8.0,11.0,68,0.00,,,0.00,meteohub,2013-08-07 17:27:00,
2013-08-07 11:32:00,54.0,43.7,31.13,South,180,11.0,11.0,68,0.00,,,0.00,meteohub,2013-08-07 17:32:00,
2013-08-07 11:37:00,53.8,43.5,31.13,South,180,6.0,11.0,68,0.00,,,0.00,meteohub,2013-08-07 17:37:00,
2013-08-07 11:42:00,53.8,43.9,31.13,South,180,6.0,11.0,69,0.00,,,0.00,meteohub,2013-08-07 17:42:00,
2013-08-07 11:47:00,54.0,43.7,31.13,SSE,158,4.0,11.0,68,0.00,,,0.00,meteohub,2013-08-07 17:47:00,
2013-08-07 11:52:00,54.1,43.9,31.13,SW,225,8.0,10.0,68,0.00,,,0.00,meteohub,2013-08-07 17:52:00,
2013-08-07 11:57:00,54.3,44.1,31.12,South,180,9.0,9.0,68,0.00,,,0.00,meteohub,2013-08-07 17:57:00,
2013-08-07 12:02:00,54.3,44.1,31.12,SW,225,7.0,9.0,68,0.00,,,0.00,meteohub,2013-08-07 18:02:00,
2013-08-07 12:07:00,54.5,45.0,31.12,South,180,8.0,9.0,70,0.00,,,0.00,meteohub,2013-08-07 18:07:00,
2013-08-07 12:12:00,54.3,44.8,31.12,South,180,8.0,9.0,70,0.00,,,0.00,meteohub,2013-08-07 18:12:00,
2013-08-07 12:17:00,54.0,45.1,31.12,South,180,10.0,11.0,72,0.00,,,0.00,meteohub,2013-08-07 18:17:00,
2013-08-07 12:22:00,53.4,45.3,31.12,SW,225,11.0,11.0,74,0.00,,,0.00,meteohub,2013-08-07 18:22:00,
2013-08-07 12:27:00,53.1,45.0,31.12,SE,135,4.0,11.0,74,0.00,,,0.00,meteohub,2013-08-07 18:27:00,
2013-08-07 12:33:00,52.9,44.4,31.12,SW,225,6.0,11.0,73,0.00,,,0.00,meteohub,2013-08-07 18:33:00,
2013-08-07 12:38:00,52.7,44.2,31.12,SE,135,7.0,11.0,73,0.00,,,0.00,meteohub,2013-08-07 18:38:00,
2013-08-07 12:43:00,52.5,43.7,31.12,South,180,7.0,9.0,72,0.00,,,0.00,meteohub,2013-08-07 18:43:00,
2013-08-07 12:48:00,52.3,43.5,31.12,SE,135,7.0,9.0,72,0.00,,,0.00,meteohub,2013-08-07 18:48:00,
2013-08-07 12:53:00,52.3,43.5,31.13,South,180,8.0,8.0,72,0.00,,,0.00,meteohub,2013-08-07 18:53:00,
2013-08-07 12:58:00,52.3,43.2,31.13,SE,135,8.0,10.0,71,0.00,,,0.00,meteohub,2013-08-07 18:58:00,
2013-08-07 13:03:00,52.5,43.3,31.13,SE,135,5.0,10.0,71,0.00,,,0.00,meteohub,2013-08-07 19:03:00,
2013-08-07 13:08:00,52.5,43.7,31.13,South,180,8.0,10.0,72,0.00,,,0.00,meteohub,2013-08-07 19:08:00,
2013-08-07 13:13:00,52.5,43.7,31.13,South,180,5.0,9.0,72,0.00,,,0.00,meteohub,2013-08-07 19:13:00,
2013-08-07 13:18:00,52.7,43.9,31.13,South,180,5.0,9.0,72,0.00,,,0.00,meteohub,2013-08-07 19:18:00,
2013-08-07 13:23:00,52.7,43.9,31.13,SE,135,4.0,8.0,72,0.00,,,0.00,meteohub,2013-08-07 19:23:00,
2013-08-07 13:28:00,52.7,44.2,31.13,SE,135,4.0,8.0,73,0.00,,,0.00,meteohub,2013-08-07 19:28:00,
2013-08-07 13:33:00,52.9,44.8,31.13,South,180,4.0,7.0,74,0.00,,,0.00,meteohub,2013-08-07 19:33:00,
2013-08-07 13:38:00,53.2,45.5,31.13,South,180,3.0,5.0,75,0.00,,,0.00,meteohub,2013-08-07 19:38:00,
2013-08-07 13:43:00,53.6,45.5,31.13,SW,225,6.0,6.0,74,0.00,,,0.00,meteohub,2013-08-07 19:43:00,
2013-08-07 13:48:00,54.0,45.9,31.13,South,180,6.0,6.0,74,0.00,,,0.00,meteohub,2013-08-07 19:48:00,
2013-08-07 13:53:00,54.1,46.0,31.13,SW,225,4.0,6.0,74,0.00,,,0.00,meteohub,2013-08-07 19:53:00,
2013-08-07 13:58:00,54.5,46.0,31.13,SE,135,3.0,6.0,73,0.01,,,0.01,meteohub,2013-08-07 19:58:00,
2013-08-07 14:03:00,54.5,46.0,31.12,SW,225,3.0,6.0,73,0.01,,,0.01,meteohub,2013-08-07 20:03:00,
2013-08-07 14:08:00,55.2,47.1,31.12,South,180,4.0,6.0,74,0.01,,,0.01,meteohub,2013-08-07 20:08:00,
2013-08-07 14:13:00,55.4,47.3,31.13,South,180,4.0,7.0,74,0.01,,,0.01,meteohub,2013-08-07 20:13:00,
2013-08-07 14:18:00,55.6,47.1,31.12,South,180,5.0,7.0,73,0.01,,,0.01,meteohub,2013-08-07 20:18:00,
2013-08-07 14:23:00,56.1,47.7,31.12,South,180,8.0,8.0,73,0.01,,,0.01,meteohub,2013-08-07 20:23:00,
2013-08-07 14:28:00,57.0,48.4,31.12,SE,135,6.0,8.0,73,0.01,,,0.01,meteohub,2013-08-07 20:28:00,
2013-08-07 14:33:00,58.3,49.3,31.11,East,90,6.0,8.0,72,0.01,,,0.01,meteohub,2013-08-07 20:33:00,
2013-08-07 14:38:00,58.6,48.2,31.11,South,180,8.0,8.0,68,0.01,,,0.01,meteohub,2013-08-07 20:38:00,
2013-08-07 14:43:00,58.6,47.3,31.10,SE,135,7.0,8.0,66,0.01,,,0.01,meteohub,2013-08-07 20:43:00,
2013-08-07 14:48:00,58.6,46.9,31.10,South,180,5.0,8.0,65,0.01,,,0.01,meteohub,2013-08-07 20:48:00,
2013-08-07 14:53:00,59.0,46.0,31.10,South,180,2.0,8.0,62,0.00,,,0.01,meteohub,2013-08-07 20:53:00,
2013-08-07 14:58:00,59.7,46.8,31.10,SE,135,3.0,8.0,62,0.00,,,0.01,meteohub,2013-08-07 20:58:00,
2013-08-07 15:03:00,60.4,46.9,31.10,SE,135,4.0,7.0,61,0.00,,,0.01,meteohub,2013-08-07 21:03:00,
2013-08-07 15:08:00,61.0,46.6,31.09,South,180,4.0,7.0,59,0.00,,,0.01,meteohub,2013-08-07 21:08:00,
2013-08-07 15:13:00,61.3,46.4,31.09,South,180,2.0,7.0,58,0.00,,,0.01,meteohub,2013-08-07 21:13:00,
2013-08-07 15:18:00,61.9,45.5,31.09,South,180,3.0,6.0,55,0.00,,,0.01,meteohub,2013-08-07 21:18:00,
2013-08-07 15:23:00,61.7,45.0,31.09,South,180,4.0,6.0,54,0.00,,,0.01,meteohub,2013-08-07 21:23:00,
2013-08-07 15:28:00,61.7,45.0,31.08,South,180,2.0,5.0,54,0.00,,,0.01,meteohub,2013-08-07 21:28:00,
2013-08-07 15:33:00,61.9,45.5,31.08,SE,135,4.0,5.0,55,0.00,,,0.01,meteohub,2013-08-07 21:33:00,
2013-08-07 15:39:00,62.2,44.4,31.08,South,180,2.0,4.0,52,0.00,,,0.01,meteohub,2013-08-07 21:39:00,
2013-08-07 15:44:00,62.4,44.6,31.08,South,180,4.0,4.0,52,0.00,,,0.01,meteohub,2013-08-07 21:44:00,
2013-08-07 15:49:00,62.4,44.6,31.07,SSE,158,2.0,5.0,52,0.00,,,0.01,meteohub,2013-08-07 21:49:00,
2013-08-07 15:54:00,62.2,43.9,31.07,South,180,3.0,5.0,51,0.00,,,0.01,meteohub,2013-08-07 21:54:00,
2013-08-07 15:59:00,62.2,44.4,31.07,South,180,6.0,6.0,52,0.00,,,0.01,meteohub,2013-08-07 21:59:00,
2013-08-07 16:04:00,62.2,44.4,31.07,SE,135,4.0,5.0,52,0.00,,,0.01,meteohub,2013-08-07 22:04:00,
2013-08-07 16:09:00,62.1,44.2,31.06,SW,225,4.0,6.0,52,0.00,,,0.01,meteohub,2013-08-07 22:09:00,
2013-08-07 16:14:00,62.8,43.9,31.06,South,180,2.0,6.0,50,0.00,,,0.01,meteohub,2013-08-07 22:14:00,
2013-08-07 16:19:00,63.7,44.8,31.06,North,0,1.0,6.0,50,0.00,,,0.01,meteohub,2013-08-07 22:19:00,
2013-08-07 16:24:00,64.6,45.0,31.06,North,0,2.0,6.0,49,0.00,,,0.01,meteohub,2013-08-07 22:24:00,
2013-08-07 16:29:00,65.1,43.9,31.05,South,180,2.0,6.0,46,0.00,,,0.01,meteohub,2013-08-07 22:29:00,
2013-08-07 16:34:00,65.3,42.3,31.05,SE,135,2.0,4.0,43,0.00,,,0.01,meteohub,2013-08-07 22:34:00,
2013-08-07 16:39:00,64.6,42.3,31.05,NNW,338,2.0,3.0,44,0.00,,,0.01,meteohub,2013-08-07 22:39:00,
2013-08-07 16:44:00,64.0,42.3,31.05,East,90,2.0,5.0,45,0.00,,,0.01,meteohub,2013-08-07 22:44:00,
2013-08-07 16:49:00,64.6,43.3,31.05,South,180,2.0,5.0,46,0.00,,,0.01,meteohub,2013-08-07 22:49:00,
2013-08-07 16:54:00,65.1,42.6,31.05,SSW,203,4.0,5.0,44,0.00,,,0.01,meteohub,2013-08-07 22:54:00,
2013-08-07 16:59:00,64.8,42.3,31.04,South,180,8.0,8.0,44,0.00,,,0.01,meteohub,2013-08-07 22:59:00,
2013-08-07 17:04:00,63.9,42.6,31.05,South,180,6.0,7.0,46,0.00,,,0.01,meteohub,2013-08-07 23:04:00,
2013-08-07 17:05:00,63.9,42.6,31.05,South,180,5.0,9.0,46,0.00,,,0.01,meteohub,2013-08-07 23:05:00,
2013-08-07 17:10:00,63.3,41.5,31.05,SW,225,2.0,9.0,45,0.00,,,0.01,meteohub,2013-08-07 23:10:00,
2013-08-07 17:15:00,63.0,41.4,31.05,SW,225,1.0,9.0,45,0.00,,,0.01,meteohub,2013-08-07 23:15:00,
2013-08-07 17:20:00,63.0,43.0,31.05,South,180,0.0,5.0,48,0.00,,,0.01,meteohub,2013-08-07 23:20:00,
2013-08-07 17:25:00,63.0,43.0,31.05,SW,225,2.0,5.0,48,0.01,,,0.02,meteohub,2013-08-07 23:25:00,
2013-08-07 17:30:00,63.0,43.0,31.05,South,180,2.0,2.0,48,0.01,,,0.02,meteohub,2013-08-07 23:30:00,
2013-08-07 17:36:00,63.1,42.6,31.05,North,0,1.0,2.0,47,0.01,,,0.02,meteohub,2013-08-07 23:36:00,
2013-08-07 17:41:00,63.3,43.3,31.05,North,0,1.0,2.0,48,0.01,,,0.02,meteohub,2013-08-07 23:41:00,
2013-08-07 17:46:00,63.5,44.1,31.05,South,180,0.0,2.0,49,0.01,,,0.02,meteohub,2013-08-07 23:46:00,
2013-08-07 17:51:00,63.5,43.5,31.05,North,0,2.0,2.0,48,0.01,,,0.02,meteohub,2013-08-07 23:51:00,
2013-08-07 17:56:00,63.5,42.3,31.05,West,270,1.0,2.0,46,0.01,,,0.02,meteohub,2013-08-07 23:56:00,
2013-08-07 18:01:00,63.3,43.3,31.04,NW,315,2.0,2.0,48,0.01,,,0.02,meteohub,2013-08-08 00:01:00,
2013-08-07 18:06:00,63.3,43.3,31.04,NW,315,2.0,2.0,48,0.01,,,0.02,meteohub,2013-08-08 00:06:00,
2013-08-07 18:11:00,63.0,42.4,31.04,West,270,2.0,3.0,47,0.01,,,0.02,meteohub,2013-08-08 00:11:00,
2013-08-07 18:16:00,63.0,43.0,31.05,NW,315,1.0,3.0,48,0.01,,,0.02,meteohub,2013-08-08 00:16:00,
2013-08-07 18:21:00,62.8,42.8,31.05,NW,315,2.0,3.0,48,0.01,,,0.02,meteohub,2013-08-08 00:21:00,
2013-08-07 18:26:00,62.6,42.6,31.05,NW,315,3.0,3.0,48,0.00,,,0.02,meteohub,2013-08-08 00:26:00,
2013-08-07 18:33:00,62.4,43.0,31.05,NE,45,2.0,3.0,49,0.00,,,0.02,meteohub,2013-08-08 00:33:00,
2013-08-07 18:38:00,62.2,42.8,31.05,NW,315,2.0,3.0,49,0.00,,,0.02,meteohub,2013-08-08 00:38:00,
2013-08-07 18:43:00,62.2,42.3,31.05,North,0,2.0,4.0,48,0.00,,,0.02,meteohub,2013-08-08 00:43:00,
2013-08-07 18:48:00,62.1,42.6,31.05,NW,315,1.0,4.0,49,0.00,,,0.02,meteohub,2013-08-08 00:48:00,
2013-08-07 18:53:00,61.9,42.4,31.04,West,270,2.0,4.0,49,0.00,,,0.02,meteohub,2013-08-08 00:53:00,
2013-08-07 18:58:00,61.9,42.4,31.05,North,0,4.0,4.0,49,0.00,,,0.02,meteohub,2013-08-08 00:58:00,
2013-08-07 19:03:00,61.7,42.3,31.05,NW,315,4.0,6.0,49,0.00,,,0.02,meteohub,2013-08-08 01:03:00,
2013-08-07 19:08:00,61.5,42.3,31.05,SW,225,4.0,6.0,49,0.00,,,0.02,meteohub,2013-08-08 01:08:00,
2013-08-07 19:13:00,61.3,42.6,31.05,North,0,2.0,6.0,50,0.00,,,0.02,meteohub,2013-08-08 01:13:00,
2013-08-07 19:18:00,61.0,42.8,31.04,North,0,2.0,6.0,51,0.00,,,0.02,meteohub,2013-08-08 01:18:00,
2013-08-07 19:23:00,60.4,42.8,31.04,North,0,0.0,4.0,52,0.00,,,0.02,meteohub,2013-08-08 01:23:00,
2013-08-07 19:28:00,60.1,43.3,31.04,NW,315,0.0,3.0,54,0.00,,,0.02,meteohub,2013-08-08 01:28:00,
2013-08-07 19:33:00,59.7,43.5,31.04,NW,315,2.0,2.0,55,0.00,,,0.02,meteohub,2013-08-08 01:33:00,
2013-08-07 19:38:00,59.2,43.0,31.04,NE,45,2.0,2.0,55,0.00,,,0.02,meteohub,2013-08-08 01:38:00,
2013-08-07 19:43:00,58.6,43.5,31.04,NE,45,2.0,2.0,57,0.00,,,0.02,meteohub,2013-08-08 01:43:00,
2013-08-07 19:48:00,58.1,43.0,31.04,NE,45,3.0,3.0,57,0.00,,,0.02,meteohub,2013-08-08 01:48:00,
2013-08-07 19:53:00,57.6,42.4,31.03,NW,315,1.0,4.0,57,0.00,,,0.02,meteohub,2013-08-08 01:53:00,
2013-08-07 19:58:00,57.2,41.2,31.04,NE,45,2.0,4.0,55,0.00,,,0.02,meteohub,2013-08-08 01:58:00,
2013-08-07 20:04:00,57.0,41.0,31.04,NE,45,2.0,4.0,55,0.00,,,0.02,meteohub,2013-08-08 02:04:00,
2013-08-07 20:09:00,56.8,39.9,31.03,North,0,2.0,3.0,53,0.00,,,0.02,meteohub,2013-08-08 02:09:00,
2013-08-07 20:14:00,56.3,39.9,31.04,East,90,1.0,2.0,54,0.00,,,0.02,meteohub,2013-08-08 02:14:00,
2013-08-07 20:19:00,55.6,40.6,31.04,NW,315,0.0,2.0,57,0.00,,,0.02,meteohub,2013-08-08 02:19:00,
2013-08-07 20:24:00,55.0,40.5,31.04,East,90,3.0,3.0,58,0.00,,,0.02,meteohub,2013-08-08 02:24:00,
2013-08-07 20:29:00,54.1,40.1,31.04,East,90,4.0,4.0,59,0.00,,,0.02,meteohub,2013-08-08 02:29:00,
2013-08-07 20:34:00,53.4,40.3,31.04,East,90,2.0,4.0,61,0.00,,,0.02,meteohub,2013-08-08 02:34:00,
2013-08-07 20:39:00,53.1,39.9,31.04,South,180,1.0,4.0,61,0.00,,,0.02,meteohub,2013-08-08 02:39:00,
2013-08-07 20:44:00,52.7,40.1,31.04,SE,135,2.0,4.0,62,0.00,,,0.02,meteohub,2013-08-08 02:44:00,
2013-08-07 20:49:00,52.7,39.6,31.04,West,270,1.0,4.0,61,0.00,,,0.02,meteohub,2013-08-08 02:49:00,
2013-08-07 20:54:00,52.3,39.7,31.05,East,90,2.0,3.0,62,0.00,,,0.02,meteohub,2013-08-08 02:54:00,
2013-08-07 20:59:00,51.8,39.2,31.05,SE,135,2.0,3.0,62,0.00,,,0.02,meteohub,2013-08-08 02:59:00,
2013-08-07 21:04:00,51.1,39.4,31.05,NE,45,4.0,4.0,64,0.00,,,0.02,meteohub,2013-08-08 03:04:00,
2013-08-07 21:09:00,50.7,39.4,31.05,East,90,4.0,4.0,65,0.00,,,0.02,meteohub,2013-08-08 03:09:00,
2013-08-07 21:14:00,50.2,38.5,31.05,East,90,3.0,4.0,64,0.00,,,0.02,meteohub,2013-08-08 03:14:00,
2013-08-07 21:19:00,50.4,38.7,31.05,East,90,3.0,4.0,64,0.00,,,0.02,meteohub,2013-08-08 03:19:00,
2013-08-07 21:24:00,51.1,39.7,31.06,SE,135,4.0,5.0,65,0.00,,,0.02,meteohub,2013-08-08 03:24:00,
2013-08-07 21:29:00,51.6,40.6,31.06,NW,315,1.0,6.0,66,0.00,,,0.02,meteohub,2013-08-08 03:29:00,
2013-08-07 21:34:00,51.3,40.3,31.06,SE,135,0.0,6.0,66,0.00,,,0.02,meteohub,2013-08-08 03:34:00,
2013-08-07 21:39:00,50.7,39.4,31.06,East,90,4.0,5.0,65,0.00,,,0.02,meteohub,2013-08-08 03:39:00,
2013-08-07 21:44:00,50.0,38.7,31.07,South,180,2.0,4.0,65,0.00,,,0.02,meteohub,2013-08-08 03:44:00,
2013-08-07 21:49:00,49.6,39.2,31.06,South,180,4.0,4.0,67,0.00,,,0.02,meteohub,2013-08-08 03:49:00,
2013-08-07 21:54:00,50.0,39.6,31.06,SE,135,4.0,5.0,67,0.00,,,0.02,meteohub,2013-08-08 03:54:00,
2013-08-07 21:59:00,50.4,39.4,31.06,East,90,4.0,5.0,66,0.00,,,0.02,meteohub,2013-08-08 03:59:00,
2013-08-07 22:01:00,50.4,39.4,31.06,East,90,4.0,5.0,66,0.00,,,0.02,meteohub,2013-08-08 04:01:00,
2013-08-07 22:06:00,50.4,39.4,31.07,East,90,4.0,5.0,66,0.00,,,0.02,meteohub,2013-08-08 04:06:00,
2013-08-07 22:11:00,49.5,39.4,31.07,SE,135,3.0,5.0,68,0.00,,,0.02,meteohub,2013-08-08 04:11:00,
2013-08-07 22:16:00,49.1,39.0,31.06,NE,45,1.0,4.0,68,0.00,,,0.02,meteohub,2013-08-08 04:16:00,
2013-08-07 22:21:00,48.7,39.0,31.07,North,0,1.0,4.0,69,0.00,,,0.02,meteohub,2013-08-08 04:21:00,
2013-08-07 22:26:00,48.4,39.0,31.06,NW,315,1.0,4.0,70,0.00,,,0.02,meteohub,2013-08-08 04:26:00,
2013-08-07 22:31:00,47.7,38.7,31.07,SE,135,2.0,3.0,71,0.00,,,0.02,meteohub,2013-08-08 04:31:00,
2013-08-07 22:36:00,47.3,38.7,31.06,East,90,4.0,4.0,72,0.00,,,0.02,meteohub,2013-08-08 04:36:00,
2013-08-07 22:41:00,47.1,38.5,31.06,East,90,2.0,4.0,72,0.00,,,0.02,meteohub,2013-08-08 04:41:00,
2013-08-07 22:46:00,47.1,38.5,31.07,South,180,2.0,4.0,72,0.00,,,0.02,meteohub,2013-08-08 04:46:00,
2013-08-07 22:51:00,46.9,38.3,31.07,NE,45,3.0,4.0,72,0.00,,,0.02,meteohub,2013-08-08 04:51:00,
2013-08-07 22:56:00,46.6,38.1,31.06,South,180,2.0,4.0,72,0.00,,,0.02,meteohub,2013-08-08 04:56:00,
2013-08-07 23:01:00,46.4,37.9,31.07,East,90,2.0,4.0,72,0.00,,,0.02,meteohub,2013-08-08 05:01:00,
2013-08-07 23:06:00,46.2,37.8,31.07,SE,135,2.0,4.0,72,0.00,,,0.02,meteohub,2013-08-08 05:06:00,
2013-08-07 23:11:00,45.9,37.4,31.06,SE,135,1.0,3.0,72,0.00,,,0.02,meteohub,2013-08-08 05:11:00,
2013-08-07 23:16:00,45.7,37.2,31.06,East,90,3.0,3.0,72,0.00,,,0.02,meteohub,2013-08-08 05:16:00,
2013-08-07 23:21:00,45.1,37.0,31.06,NE,45,2.0,3.0,73,0.00,,,0.02,meteohub,2013-08-08 05:21:00,
2013-08-07 23:26:00,45.0,36.9,31.06,NE,45,2.0,4.0,73,0.00,,,0.02,meteohub,2013-08-08 05:26:00,
2013-08-07 23:30:00,45.0,37.2,31.07,East,90,3.0,4.0,74,0.00,,,0.02,meteohub,2013-08-08 05:30:00,
2013-08-07 23:32:00,45.0,37.2,31.07,East,90,2.0,4.0,74,0.00,,,0.02,meteohub,2013-08-08 05:32:00,
2013-08-07 23:37:00,45.1,37.8,31.06,SE,135,2.0,3.0,75,0.00,,,0.02,meteohub,2013-08-08 05:37:00,
2013-08-07 23:42:00,45.3,38.1,31.07,East,90,3.0,3.0,76,0.00,,,0.02,meteohub,2013-08-08 05:42:00,
2013-08-07 23:47:00,45.5,38.3,31.06,SE,135,2.0,4.0,76,0.00,,,0.02,meteohub,2013-08-08 05:47:00,
2013-08-07 23:52:00,45.7,38.5,31.07,South,180,4.0,4.0,76,0.00,,,0.02,meteohub,2013-08-08 05:52:00,
2013-08-07 23:57:00,46.0,38.5,31.07,SE,135,4.0,4.0,75,0.00,,,0.02,meteohub,2013-08-08 05:57:00,